SL-14 DEB, 45653

Orbit data source: Space-Track

SL-14 DEB, 45653 is space debris in LEO originally from a launch on Thu, 15 Aug 1991 UTC launched from the Plesetsk Missile And Space Complex (PKMTR). Debris objects in space refer to the collection of defunct objects orbiting the Earth. Examples of debris include non-operational satellites, rocket bodies, and fragments generated from explosions, collisions, or faulty payload assembly.

Loading next visibility...
Identifier
45653, 1991-056CX
Orbit
LEO
Last TLE update
2 weeks ago
Origin
Manufacturer
Unknown
Mission
Spacecraft
Bus & Motor
Unknown
Mass
Unknown
Launch date (UTC)
1991-08-15 (34 years ago)
Launch vehicle
Unknown
Launch site
Plesetsk Missile And Space Complex (PKMTR)
Object type
Payload
Rocket body
Debris
Shape & HBR
Unknown
Radar Cross Section
Small (<0.1 m²)

Expand to show TLE details & history

TLE from 2 weeks ago
0 SL-14 DEB
1 45653U 91056CX  25179.49649689  .00000789  00000-0  15164-2 0  9996
2 45653  82.5585 352.4774 0069565 115.9766 244.8554 13.35110254256534
Epoch: 2025-06-28T11:54Z
TLE epoch observation values (Epoch: 2025-06-28T11:54:57.331Z)
Latitude
-0.00007°
Longitude
-103.09566°
Altitude
1,152.869 km
Speed
7.266 km/s
True Right ascension
23h 29m 54s
True Declination
0° 00' 00"
Sunlit
Object was in daylight at epoch
Visualization orbit readout
Latitude
-4.33305°
Longitude
69.57365°
Altitude
1,136.262 km
Speed
7.282 km/s
Apparent Right ascension
09h 49m 44s
Apparent Declination
-21° 59' 55"
Sunlit
Object is in daylight
Visualization observer readout
Local Sidereal Time
19:58:48
Azimuth
299.013° NW
Elevation
-60.436°
Doppler factor
1
Orbital elements
Apogee altitude
1,176.962 km
Perigee altitude
1,072.574 km
Semi-major axis
7,502.905 km
Eccentricity
0.00696
Inclination
82.5585°
RAAN
352.4774°
Arg. of periapsis
115.9766°
True anomaly
Unknown
Mean anomaly
244.8554°
Eccentric anomaly
Unknown
Mean motion
3.33963 °/min
Orbital period
107.8 mins
BSTAR
0.0015164
Loading maneuver chart data...
Loading SW <> Apogee altitude chart data...
Loading historical data...
Loading historical data...
Loading historical data...
Loading historical data...
Loading historical data...
Loading historical data...
Loading historical data...

SL-14 DEB Visibility forecast

Observer location: undefined°, undefined°

Span
Click to sort rows by Start time (UTC) header in descending order
Start Az.
Max El. time (UTC)
Max El. Az.
Max El.
End time (UTC)
End Az.
12 mins2025-07-09 10:36:14.589Z165.049° S2025-07-09 10:42:14.589Z90.849° ESE39.01°2025-07-09 10:48:14.589Z18.096° NNE
9 mins2025-07-09 12:27:14.589Z245.691° WSW2025-07-09 12:31:14.589Z289.209° WNW22.523°2025-07-09 12:36:14.589Z340.263° N
11 mins2025-07-09 21:54:14.589Z2.533° NNE2025-07-09 21:59:14.589Z88.663° E42.102°2025-07-09 22:05:14.589Z160.811° S
7 mins2025-07-09 23:44:14.589Z307.719° NW2025-07-09 23:47:14.589Z276.025° WNW18.658°2025-07-09 23:51:14.589Z237.615° WSW
|